TimeCST,TemperatureF,Dew PointF,Humidity,Sea Level PressureIn,VisibilityMPH,Wind Direction,Wind SpeedMPH,Gust SpeedMPH,PrecipitationIn,Events,Conditions,WindDirDegrees,DateUTC
12:00 AM,69,66,89,29.87,9,NW,2.3,,,Fog,Patches of Fog,310,2012-10-10 06:00:00
12:00 AM,68.0,66.2,94,30.05,6.2,NW,2.3,-,N/A,Fog,Patches of Fog,310,2012-10-10 06:00:00
1:00 AM,68.0,66.2,94,30.02,6.2,ENE,3.5,-,N/A,Fog,Patches of Fog,70,2012-10-10 07:00:00
2:00 AM,68.0,64.4,88,29.99,-9999.0,NE,3.5,-,N/A,,Clear,40,2012-10-10 08:00:00
3:00 AM,66,63,87,29.86,12,East,3.5,,,,Partly Cloudy,90,2012-10-10 09:00:00
3:00 AM,66.2,62.6,88,29.98,-9999.0,East,3.5,-,N/A,,Clear,90,2012-10-10 09:00:00
4:00 AM,66.2,62.6,88,29.98,6.2,SE,4.6,-,N/A,Fog,Patches of Fog,130,2012-10-10 10:00:00
5:00 AM,66.2,62.6,88,30.01,6.2,SSW,2.3,-,N/A,Fog,Patches of Fog,200,2012-10-10 11:00:00
5:30 AM,66.2,64.4,94,30.02,0.6,South,3.5,-,N/A,,Mostly Cloudy,180,2012-10-10 11:30:00
6:00 AM,66,64,90,29.91,1,SSE,1.2,,,,Mist,150,2012-10-10 12:00:00
6:00 AM,66.2,64.4,94,30.03,1.2,SSE,1.2,-,N/A,,Mostly Cloudy,150,2012-10-10 12:00:00
7:00 AM,68.0,66.2,94,30.05,3.1,East,2.3,-,N/A,,Mostly Cloudy,100,2012-10-10 13:00:00
8:00 AM,71.6,66.2,83,30.08,5.0,ENE,2.3,-,N/A,Fog,Patches of Fog,60,2012-10-10 14:00:00
9:00 AM,72,65,74,29.94,6,Calm,Calm,,,Fog,Patches of Fog,,2012-10-10 15:00:00
9:00 AM,71.6,66.2,83,30.09,5.6,Calm,Calm,-,N/A,Fog,Patches of Fog,0,2012-10-10 15:00:00
9:36 AM,71.6,64.4,78,30.10,6.2,West,4.6,-,N/A,Rain,Light Rain,270,2012-10-10 15:36:00
10:00 AM,71.6,66.2,83,30.10,6.2,WSW,4.6,-,N/A,Fog,Patches of Fog,250,2012-10-10 16:00:00
11:00 AM,73.4,68.0,83,30.08,5.6,West,3.5,-,N/A,Fog-Rain,Light Rain,260,2012-10-10 17:00:00
12:00 PM,76,66,63,29.86,6,West,2.3,,,Fog,Patches of Fog,280,2012-10-10 18:00:00
12:00 PM,77.0,66.2,69,30.03,6.2,West,2.3,-,N/A,Fog,Patches of Fog,280,2012-10-10 18:00:00
1:00 PM,77.0,66.2,69,29.99,6.2,WSW,4.6,-,N/A,,Mostly Cloudy,240,2012-10-10 19:00:00
2:00 PM,77.0,66.2,69,29.96,6.2,SSW,2.3,-,N/A,,Mostly Cloudy,200,2012-10-10 20:00:00
3:00 PM,75,67,68,29.86,5,West,5.8,,,Rain,Light Rain,270,2012-10-10 21:00:00
3:00 PM,73.4,66.2,78,29.96,5.0,West,5.8,-,N/A,Rain,Light Rain,270,2012-10-10 21:00:00
4:00 PM,73.4,69.8,88,29.97,6.2,SSW,4.6,-,N/A,Rain,Light Rain,210,2012-10-10 22:00:00
5:00 PM,71.6,68.0,88,29.99,3.1,SW,2.3,-,N/A,,Mostly Cloudy,220,2012-10-10 23:00:00
6:00 PM,71,67,83,29.87,6,Calm,Calm,,,,Scattered Clouds,,2012-10-11 00:00:00
6:00 PM,69.8,66.2,88,30.00,6.2,Calm,Calm,-,N/A,,Mostly Cloudy,0,2012-10-11 00:00:00
7:00 PM,69.8,64.4,83,30.03,6.2,East,2.3,-,N/A,,Mostly Cloudy,100,2012-10-11 01:00:00
8:00 PM,69.8,64.4,83,30.05,6.2,ESE,2.3,-,N/A,,Mostly Cloudy,120,2012-10-11 02:00:00
9:00 PM,71,63,68,29.94,9,ENE,2.3,,,Fog,Light Fog,60,2012-10-11 03:00:00
9:00 PM,69.8,62.6,78,30.06,6.2,ENE,5.8,-,N/A,Fog,Mostly Cloudy,70,2012-10-11 03:00:00
10:00 PM,69.8,62.6,78,30.07,6.2,ENE,2.3,-,N/A,Fog,Mostly Cloudy,60,2012-10-11 04:00:00
11:00 PM,69.8,64.4,83,30.05,6.2,NE,3.5,-,N/A,Fog,Mostly Cloudy,40,2012-10-11 05:00:00